#timestamp,LO_Frequency,Hit 
1499101215.5,286046993.6,N
1499101235.3,286046994.1,N
1499101255.1,286046995.6,N
1499101275.9,286046995.8,N
1499101295.7,286046995.8,N
1499101315.5,286046996.2,N
1499101335.4,286046996.4,N
1499101355.2,286046994.2,N
1499101375.0,286046994.4,N
1499101375.9,286046994.4,N
1499101395.8,286046993.9,N
1499101415.6,286046994.1,N
1499101435.4,286046994.1,N
1499101455.3,286046993.6,N
1499101475.1,286046994.1,N
1499101476.0,286046994.1,N
1499101495.8,286046995.2,N
1499101515.7,286046996.8,N
1499101535.5,286046999.1,N
1499101555.3,286046997.0,N
1499101575.1,286046997.7,N
1499101595.9,286046998.0,N
1499101615.7,286046996.1,N
1499101635.5,286046995.7,N
1499101655.4,286046996.3,N
1499101675.2,286046991.7,N
1499101695.0,286046992.4,N
1499101695.9,286046992.4,N
1499101715.8,286046996.4,N
1499101735.6,286046997.7,N
1499101755.4,286046996.9,N
1499101775.3,286046999.3,N
1499101795.1,286046996.6,N
1499101796.0,286046996.6,N
1499101815.8,286046996.5,N
1499101835.7,286046996.9,N
1499101855.5,286046995.1,N
1499101875.3,286046998.0,N
1499101895.1,286046995.8,N
1499101915.9,286046993.8,N
1499101935.7,286046994.3,N
1499101955.5,286046995.0,N
1499101975.4,286046995.4,N
1499101995.2,286046996.1,N
1499102015.0,286046995.6,N
1499102015.9,286046995.6,N
1499102035.8,286046998.0,N
1499102055.6,286046995.7,N
1499102075.4,286046993.5,N
1499102095.3,286046993.3,N
1499102115.1,286046995.7,N
1499102116.0,286046995.7,N
1499102135.8,286046993.6,N
1499102155.7,286046996.0,N
1499102175.5,286046997.3,N
1499102195.3,286046995.5,N
1499102215.2,286046995.6,N
1499102235.9,286046996.9,N
1499102255.7,286046999.0,N
1499102275.5,286046998.8,N
1499102295.4,286046999.6,N
1499102315.2,286046996.9,N
1499102335.0,286046996.6,N
1499102335.9,286046996.6,N
1499102355.8,286046999.6,N
1499102375.6,286046997.1,N
1499102395.4,286046998.0,N
1499102415.3,286046996.8,N
1499102435.1,286046998.0,N
1499102455.8,286046996.3,N
1499102475.7,286046997.8,N
1499102495.5,286046997.6,N
1499102515.3,286046995.3,N
1499102535.2,286046995.4,N
1499102555.1,286046995.3,N
1499102556.0,286046995.3,N
1499102575.8,286046997.4,N
1499102595.6,286046997.5,N
1499102615.5,286046999.6,N
1499102635.3,286046997.1,N
1499102655.1,286046999.1,N
1499102675.8,286046994.9,N
1499102695.7,286046997.8,N
1499102715.5,286046995.3,N
1499102735.3,286046999.1,N
1499102755.2,286046999.1,N
1499102775.0,286046996.5,N
1499102775.9,286046996.5,N
1499102795.7,286046997.2,N
1499102815.6,286046999.0,N
1499102835.4,286046996.5,N
1499102855.2,286047000.6,N
1499102875.1,286047002.2,N
1499102876.0,286047002.2,N
1499102895.8,286047002.1,N
1499102915.6,286047000.2,N
1499102935.5,286047001.3,N
1499102955.3,286047000.0,N
1499102975.1,286047002.2,N
1499102995.9,286047000.4,N
1499103015.7,286046999.4,N
1499103035.5,286046996.9,N
1499103055.3,286046996.9,N
1499103075.2,286046999.4,N
1499103095.0,286046999.2,N
1499103095.9,286046999.2,N
1499103115.7,286046998.9,N
1499103135.6,286046999.8,N
1499103155.4,286047002.1,N
1499103175.2,286047002.2,N
1499103195.1,286047001.3,N
1499103196.0,286047001.3,N
1499103215.8,286047001.5,N
1499103235.6,286047002.2,N
1499103255.5,286047000.9,N
1499103275.3,286047000.8,N
1499103295.1,286047001.7,N
1499103315.9,286047003.5,N
1499103335.7,286047001.5,N
1499103355.5,286047000.4,N
1499103375.4,286046998.8,N
1499103395.2,286046999.8,N
1499103415.0,286047001.1,N
1499103415.9,286047001.1,N
1499103435.8,286047001.9,N
1499103455.6,286047001.3,N
1499103475.4,286047001.7,N
1499103495.3,286047003.5,N
1499103515.1,286047003.2,N
1499103516.0,286047003.2,N
1499103535.8,286047004.0,N
1499103555.6,286047005.8,N
1499103575.5,286047004.9,N
1499103595.3,286047007.5,N
1499103615.1,286047005.8,N
1499103635.9,286047005.8,N
1499103655.7,286047005.6,N
1499103675.5,286047001.8,N
1499103695.4,286047001.5,N
1499103715.2,286047005.5,N
1499103735.0,286047003.0,N
1499103735.9,286047003.0,N
1499103755.8,286047005.1,N
1499103775.6,286047003.2,N
1499103795.4,286047005.9,N
1499103815.3,286047004.9,N
1499103835.1,286047004.9,N
1499103836.0,286047004.9,N
1499103855.8,286047009.1,N
1499103875.6,286047007.2,N
1499103895.5,286047004.8,N
1499103915.3,286047007.6,N
1499103935.1,286047007.2,N
1499103955.9,286047004.7,N
1499103975.7,286047004.7,N
1499103995.5,286047006.9,N
1499104015.4,286047006.5,N
1499104035.2,286047006.1,N
1499104055.0,286047008.2,N
1499104055.9,286047008.2,N
1499104075.8,286047006.8,N
1499104095.6,286047006.8,N
1499104115.4,286047004.5,N
1499104135.3,286047007.0,N
1499104155.1,286047005.6,N
1499104156.0,286047005.6,N
1499104175.8,286047007.6,N
1499104195.7,286047008.9,N
1499104215.5,286047006.6,N
1499104235.3,286047005.2,N
1499104255.1,286047006.2,N
1499104275.9,286047010.8,N
1499104295.7,286047008.0,N
1499104315.5,286047004.6,N
1499104335.4,286047007.0,N
1499104355.2,286047008.4,N
1499104375.0,286047007.8,N
1499104375.9,286047007.8,N
1499104395.8,286047009.1,N
1499104415.6,286047008.1,N
1499104435.4,286047010.3,N
1499104455.3,286047007.8,N
1499104475.1,286047006.1,N
1499104476.0,286047006.1,N
1499104495.8,286047010.8,N
1499104515.7,286047007.8,N
1499104535.5,286047006.1,N
1499104555.3,286047007.9,N
1499104575.2,286047006.2,N
1499104595.9,286047008.2,N
1499104615.7,286047010.5,N
1499104635.5,286047011.9,N
1499104655.4,286047008.0,N
1499104675.2,286047007.7,N
1499104695.0,286047010.5,N
1499104695.9,286047010.5,N
1499104715.8,286047009.3,N
1499104735.6,286047009.4,N
1499104755.4,286047010.7,N
1499104775.3,286047007.8,N
1499104795.1,286047010.0,N
